OBJECT N, 68428

Orbit data source: Space-Track

You're viewing an Uncataloged Satellite

Recently launched and/or uncataloged satellites may have evolving metadata. Metadata may include but not limited to: Owner, Maufacturer, Bus, Motor, and Mission.

OBJECT N, 68428 is a satellite in SSO that was launched on Mon, 30 Mar 2026 UTC via an FALCON 9 launch vehicle from the Air Force Western Test Range (AFWTR). Unknown objects in Earth's orbit typically refer to objects detected orbiting the Earth but have not yet been identified or cataloged. These objects could be anything from previously untracked satellites, spent rocket stages, debris from satellite collisions, or even natural meteoroids temporarily captured by Earth's gravity.

Loading next visibility...
Identifier
68428, 2026-067N
Orbit
SSO
Country
Flag of TBDTBD
Related business
None
Manufacturer
Unknown
Mission
Operational spacecraft
Bus & Motor
Unknown
Mass
Unknown
Launch date (UTC)
2026-03-30 (1 month ago)
Launch vehicle
FALCON 9
Launch site
Air Force Western Test Range (AFWTR)
Object type
Unknown
Shape & HBR
Unknown shape, 1.1 m
Radar Cross Section
RCS unknown

Expand to show TLE details & history
Last TLE update: 13 hours ago

TLE from 13 hours ago
0 OBJECT N
1 68428U 26067N   26127.13917389  .00003450  00000-0  17204-3 0  9997
2 68428  97.4551  86.2320 0003278 114.4341 245.7235 15.18198076  5717
Epoch: 2026-05-07T03:20Z
TLE epoch observation values (Epoch: 2026-05-07T03:20:24.624Z)
Latitude
-0.00003°
Longitude
171.1398°
Altitude
515.302 km
Speed
7.605 km/s
True Right ascension
05h 44m 55s
True Declination
0° 00' 00"
Sunlit
Object was in daylight at epoch
Visualization orbit readout
Latitude
Unknown
Longitude
Unknown
Altitude
Unknown
Speed
Unknown
Apparent Right ascension
Unknown
Apparent Declination
Unknown
Sunlit
N/A
Visualization observer readout
Local Sidereal Time
00:08:45
Azimuth
Unknown
Elevation
Unknown
Doppler factor
Unknown
Orbital elements
Apogee altitude
510.514 km
Perigee altitude
506 km
Semi-major axis
6,886.394 km
Eccentricity
0.00033
Inclination
97.4551°
RAAN
86.232°
Arg. of periapsis
114.4341°
True anomaly
245.68926°
Mean anomaly
245.7235°
Eccentric anomaly
245.70638°
Mean motion
3.798 °/min
Orbital period
94.79 mins
BSTAR
0.00017204
Loading maneuver chart data...
Computing Atmospheric mass density...
Loading historical data...
Loading historical data...
Loading historical data...
Loading historical data...
Loading historical data...
Loading historical data...
Loading historical data...

Documentation

Showing up to 5 results
|